TimeCST,TemperatureF,Dew PointF,Humidity,Sea Level PressureIn,VisibilityMPH,Wind Direction,Wind SpeedMPH,Gust SpeedMPH,PrecipitationIn,Events,Conditions,WindDirDegrees,DateUTC
12:56 AM,8.1,5.0,87,30.10,10.0,SSW,6.9,-,N/A,,Clear,210,2013-01-02 06:56:00
1:56 AM,3.9,-0.0,84,30.09,9.0,Calm,Calm,-,N/A,,Clear,0,2013-01-02 07:56:00
2:56 AM,9.0,5.0,84,30.09,7.0,Calm,Calm,-,N/A,,Clear,0,2013-01-02 08:56:00
3:56 AM,8.1,5.0,87,30.09,7.0,Calm,Calm,-,N/A,,Clear,0,2013-01-02 09:56:00
4:56 AM,16.0,10.9,81,30.07,10.0,West,8.1,-,N/A,,Overcast,260,2013-01-02 10:56:00
5:56 AM,19.9,15.1,81,30.07,10.0,West,9.2,-,N/A,,Overcast,280,2013-01-02 11:56:00
6:56 AM,23.0,18.0,81,30.09,10.0,West,10.4,-,N/A,,Overcast,270,2013-01-02 12:56:00
7:21 AM,24.8,19.4,80,30.01,10.0,West,9.2,-,N/A,,Overcast,280,2013-01-02 13:21:00
7:56 AM,26.1,21.9,84,30.09,10.0,West,11.5,-,N/A,,Overcast,280,2013-01-02 13:56:00
8:46 AM,28.4,23.0,80,30.01,10.0,West,9.2,-,N/A,,Overcast,280,2013-01-02 14:46:00
8:56 AM,28.0,24.1,85,30.08,10.0,West,10.4,-,N/A,,Overcast,270,2013-01-02 14:56:00
9:56 AM,28.9,24.1,82,30.10,10.0,WNW,10.4,-,N/A,,Mostly Cloudy,290,2013-01-02 15:56:00
10:56 AM,32.0,25.0,75,30.12,10.0,WNW,10.4,-,0.00,,Overcast,300,2013-01-02 16:56:00
11:09 AM,32.0,26.6,80,30.04,10.0,WNW,10.4,-,N/A,,Overcast,290,2013-01-02 17:09:00
11:56 AM,33.1,26.1,75,30.11,10.0,NW,13.8,-,N/A,,Overcast,310,2013-01-02 17:56:00
12:51 PM,33.8,26.6,75,30.02,10.0,WNW,12.7,-,N/A,,Overcast,300,2013-01-02 18:51:00
12:56 PM,33.1,26.1,75,30.10,10.0,WNW,13.8,-,N/A,,Overcast,300,2013-01-02 18:56:00
1:56 PM,33.1,24.1,70,30.10,10.0,NW,11.5,-,N/A,,Overcast,310,2013-01-02 19:56:00
2:56 PM,33.1,24.1,70,30.12,10.0,WNW,12.7,-,N/A,,Overcast,300,2013-01-02 20:56:00
3:56 PM,32.0,25.0,75,30.15,10.0,WNW,8.1,-,N/A,,Overcast,300,2013-01-02 21:56:00
4:56 PM,32.0,25.0,75,30.16,10.0,NW,8.1,-,N/A,,Overcast,310,2013-01-02 22:56:00
5:56 PM,32.0,24.1,73,30.17,10.0,WNW,10.4,-,N/A,,Overcast,300,2013-01-02 23:56:00
6:34 PM,30.2,24.8,80,30.12,10.0,WNW,9.2,-,N/A,,Overcast,300,2013-01-03 00:34:00
7:56 PM,30.0,25.0,82,30.19,10.0,NW,9.2,-,0.00,,Overcast,310,2013-01-03 01:56:00
8:21 PM,30.2,24.8,80,30.14,10.0,WNW,6.9,-,N/A,,Overcast,300,2013-01-03 02:21:00
8:56 PM,30.0,25.0,82,30.22,10.0,West,6.9,-,N/A,,Overcast,280,2013-01-03 02:56:00
9:56 PM,28.9,24.1,82,30.23,10.0,West,8.1,-,N/A,,Overcast,280,2013-01-03 03:56:00
10:33 PM,28.4,24.8,86,30.19,10.0,West,8.1,-,N/A,,Overcast,280,2013-01-03 04:33:00
10:56 PM,30.0,23.0,75,30.25,10.0,NW,16.1,23.0,N/A,,Overcast,310,2013-01-03 04:56:00
11:04 PM,28.4,23.0,80,30.20,10.0,NW,15.0,23.0,N/A,,Overcast,310,2013-01-03 05:04:00
11:56 PM,28.0,21.9,78,30.27,10.0,NW,13.8,-,N/A,,Overcast,310,2013-01-03 05:56:00